GW3488 Weather Reports


time (UTC)temp
C
wind
direction
speed
KPH
gust
KPH
rain 1hr
cm
rain 24hr
cm
rain mn
cm
humidity
%
barometer
mb
20260906231534 17 180 9.7 19.3 0.00 0.10 0.05 75 1016.3
20260906230034 17 180 9.7 14.5 0.00 0.10 0.05 74 1016.5
20260906224536 17 180 8.0 16.1 0.00 0.10 0.05 76 1016.7
20260906223042 17 180 8.0 16.1 0.00 0.10 0.05 78 1016.7
20260906221534 17 180 8.0 16.1 0.03 0.10 0.05 76 1016.9
20260906220037 17 180 3.2 9.7 0.03 0.10 0.05 76 1017.0
20260906214539 17 0 0.0 11.3 0.03 0.10 0.05 76 1016.9
20260906213034 17 180 3.2 6.4 0.03 0.10 0.05 76 1016.9
20260906211542 16 0 0.0 3.2 0.00 0.08 0.03 76 1017.0
20260906210038 16 0 0.0 4.8 0.00 0.08 0.03 76 1017.1
20260906204539 16 0 0.0 6.4 0.00 0.08 0.03 77 1017.0
20260906203036 16 0 0.0 4.8 0.00 0.08 0.03 79 1017.2
20260906201535 16 0 0.0 4.8 0.00 0.08 0.03 80 1017.2
20260906200043 15 180 0.0 3.2 0.00 0.08 0.03 81 1017.4
20260906194536 15 180 0.0 4.8 0.00 0.08 0.03 82 1017.5
20260906193058 15 0 1.6 4.8 0.00 0.08 0.03 83 1017.8
20260906191539 15 180 3.2 9.7 0.00 0.08 0.03 84 1017.9
20260906190036 15 180 3.2 16.1 0.00 0.08 0.03 84 1018.0
20260906184543 16 180 3.2 16.1 0.00 0.10 0.03 83 1018.0
20260906183038 16 180 6.4 16.1 0.00 0.10 0.03 85 1017.9
20260906181557 15 180 4.8 12.9 0.00 0.10 0.03 88 1018.0
20260906180037 14 180 8.0 16.1 0.00 0.10 0.03 88 1018.1
20260906174541 14 180 9.7 17.7 0.00 0.10 0.03 87 1018.6
20260906173034 13 180 14.5 22.5 0.00 0.10 0.03 88 1018.5
20260906171535 13 180 14.5 19.3 0.00 0.10 0.03 88 1018.5
20260906170036 12 180 11.3 19.3 0.00 0.10 0.03 89 1018.8
20260906164540 12 180 6.4 14.5 0.00 0.10 0.03 90 1019.3
20260906163036 12 180 6.4 12.9 0.00 0.10 0.03 90 1019.7
20260906161536 12 180 4.8 12.9 0.00 0.10 0.03 91 1019.8
20260906160033 12 0 3.2 11.3 0.00 0.10 0.03 91 1019.9
20260906154541 12 180 4.8 12.9 0.00 0.10 0.03 92 1019.9
20260906153035 12 180 6.4 12.9 0.00 0.10 0.03 91 1020.0
20260906151534 12 180 8.0 16.1 0.00 0.10 0.03 91 1020.3
20260906150035 12 180 9.7 17.7 0.03 0.10 0.03 91 1020.5
20260906144547 12 180 6.4 22.5 0.03 0.10 0.03 90 1020.6
20260906143034 12 180 9.7 25.7 0.03 0.10 0.03 91 1020.5
20260906141536 12 180 17.7 24.1 0.03 0.10 0.03 91 1020.8
20260906140036 12 180 4.8 8.0 0.00 0.08 0.00 91 1020.2
20260906134535 12 180 4.8 8.0 0.00 0.20 0.00 90 1019.9
20260906133036 13 180 6.4 9.7 0.00 0.20 0.00 88 1020.1
20260906131538 13 310 3.2 12.9 0.00 0.20 0.00 86 1019.9
20260906130033 13 310 4.8 8.0 0.00 0.20 0.00 86 1020.0
20260906124539 13 310 1.6 14.5 0.00 0.23 0.00 87 1020.0
20260906123039 13 180 6.4 9.7 0.00 0.23 0.00 87 1020.0
20260906121536 13 180 1.6 6.4 0.00 0.23 0.00 87 1020.0
20260906120042 13 180 4.8 8.0 0.00 0.23 0.00 87 1019.6
20260906114546 13 180 1.6 11.3 0.00 0.23 0.00 86 1019.5
20260906113035 13 180 1.6 14.5 0.00 0.23 0.00 86 1019.6
20260906111540 13 180 8.0 19.3 0.00 0.23 0.00 85 1019.8
20260906110033 13 180 11.3 17.7 0.00 0.23 0.00 86 1019.7
20260906104546 13 180 6.4 12.9 0.00 0.23 0.00 87 1020.0
20260906103037 13 180 3.2 12.9 0.00 0.23 0.00 87 1020.2
20260906101535 13 180 4.8 12.9 0.00 0.23 0.00 87 1020.1
20260906100035 13 180 8.0 16.1 0.00 0.23 0.00 88 1020.1
20260906094555 13 180 4.8 12.9 0.00 0.23 0.00 89 1020.1
20260906093048 13 180 6.4 12.9 0.00 0.23 0.00 88 1020.2
20260906091535 13 180 4.8 14.5 0.00 0.23 0.00 88 1020.0
20260906090035 13 180 9.7 16.1 0.00 0.23 0.00 87 1020.0
20260906084534 13 4 8.0 17.7 0.00 0.23 0.00 87 1020.2
20260906083045 13 180 9.7 20.9 0.00 0.23 0.00 87 1020.4
20260906081538 13 180 12.9 19.3 0.00 0.23 0.00 88 1020.7
20260906080040 13 180 9.7 20.9 0.00 0.23 0.00 88 1021.0
20260906074535 13 180 14.5 19.3 0.00 0.23 0.00 87 1021.1
20260906073034 13 180 6.4 14.5 0.00 0.23 0.00 85 1021.4
20260906071537 13 180 4.8 9.7 0.00 0.23 0.00 84 1021.6
20260906070034 13 180 6.4 14.5 0.00 0.23 0.00 84 1021.5
20260906064534 13 180 8.0 16.1 0.00 0.23 0.00 84 1021.4
20260906063036 13 180 1.6 8.0 0.00 0.23 0.00 83 1021.5
20260906061538 13 180 6.4 14.5 0.00 0.23 0.00 85 1021.7
20260906060032 13 180 9.7 17.7 0.00 0.23 0.00 86 1021.9
20260906054539 13 180 9.7 16.1 0.00 0.23 0.23 87 1021.8
20260906053036 13 180 8.0 14.5 0.00 0.23 0.23 86 1021.8
20260906051548 13 180 6.4 16.1 0.00 0.23 0.23 86 1021.9
20260906050036 13 180 6.4 17.7 0.03 0.23 0.23 85 1021.1
20260906044535 13 180 8.0 16.1 0.03 0.23 0.23 84 1021.1
20260906043033 14 180 12.9 20.9 0.03 0.23 0.23 83 1021.0
20260906041537 14 180 3.2 17.7 0.03 0.23 0.23 84 1021.1
20260906040035 13 0 0.0 4.8 0.00 0.20 0.20 83 1020.5
20260906034535 13 180 0.0 8.0 0.00 0.20 0.20 82 1020.0
20260906033045 14 0 0.0 6.4 0.03 0.20 0.20 80 1020.2
20260906031539 14 180 6.4 14.5 0.03 0.20 0.20 79 1020.2
20260906030035 15 180 8.0 24.1 0.03 0.20 0.20 76 1020.1
20260906024547 17 180 19.3 37.0 0.03 0.20 0.20 68 1019.4
20260906023035 16 180 8.0 16.1 0.00 0.18 0.18 69 1020.4
20260906021534 16 180 3.2 9.7 0.00 0.18 0.18 67 1018.2
20260906020034 16 180 4.8 12.9 0.00 0.18 0.18 64 1018.6
20260906014549 17 180 9.7 20.9 0.00 0.18 0.18 62 1018.6
20260906013044 18 180 14.5 24.1 0.00 0.18 0.18 59 1018.4
20260906011534 18 180 11.3 24.1 0.00 0.18 0.18 57 1018.5
20260906010036 19 180 16.1 29.0 0.00 0.18 0.18 53 1018.5
20260906004534 20 180 17.7 27.4 0.00 0.18 0.18 50 1018.6
20260906003034 21 180 17.7 29.0 0.00 0.18 0.18 48 1018.7
20260906001534 22 180 19.3 27.4 0.00 0.18 0.18 44 1018.6
20260906000039 22 180 16.1 25.7 0.00 0.18 0.18 40 1018.6
20260905234538 22 180 16.1 25.7 0.00 0.18 0.18 41 1018.6
20260905233035 22 180 14.5 20.9 0.00 0.18 0.18 42 1018.7